Weather History for St. Kitts, Saint Kitts and Nevis

Change the Weather History Date:

Sunday, September 8, 2013

  Actual Average Record
Temperature  
Mean Temperature 84 °F -  
Max Temperature 88 °F 85 °F 91 °F (2005)
Min Temperature 79 °F 77 °F 71 °F (2012)
Cooling Degree Days 18    
Growing Degree Days 34 (Base 50)    
Moisture  
Dew Point 77 °F    
Average Humidity 76    
Maximum Humidity 89    
Minimum Humidity 64    
Precipitation  
Precipitation 0.00 in - - ()
Sea Level Pressure  
Sea Level Pressure 29.96 in    
Wind  
Wind Speed 7 mph ()    
Max Wind Speed 14 mph    
Max Gust Speed -    
Visibility 8.4 miles    
Events      
Averages and records for this station are not official NWS values.
T = Trace of Precipitation, MM = Missing Value Source: Averaged Metar Reports

Daily Weather History Graph

Daily Weather History Graph

Search for Another Location

Airport:

Trip Planner

Search our weather history database for the weather conditions in past years. The results will help you decide how hot, cold, wet, or windy it might be!

Date:

Astronomy

Sep. 08, 2013 Rise Set
Actual Time 5:57 AM AST 6:18 PM AST
Civil Twilight 5:36 AM AST 6:40 PM AST
Nautical Twilight 5:10 AM AST 7:05 PM AST
Astronomical Twilight 4:45 AM AST 7:31 PM AST
Moon 8:35 AM AST (9/8) 8:30 PM AST (9/8)
Length of Visible Light 13h 04m
Length of Day
12h 20m
Waxing Crescent, 11% of the Moon is Illuminated
Sep 8
Waxing Crescent
Sep 12
First Quarter
Sep 19
Full
Sep 26
Last Quarter
Oct 4
New

Hourly Weather History & Observations

Time (AST) Temp. Heat Index Dew Point Humidity Pressure Visibility Wind Dir Wind Speed Gust Speed Precip Events Conditions
6:00 AM 80.6 °F 87.1 °F 77.0 °F 89% 29.95 in 6.2 mi Variable 2.3 mph - N/A   Mostly Cloudy
7:00 AM 80.6 °F 87.1 °F 77.0 °F 89% 29.95 in 6.2 mi Variable 2.3 mph - N/A   Mostly Cloudy
8:00 AM 84 °F - 77 °F 73% 29.99 in 15 mi ESE 9.2 mph - -   Widespread Dust
8:00 AM 84.2 °F 94.1 °F 77.0 °F 79% 29.98 in 6.2 mi ESE 9.2 mph - N/A   Mostly Cloudy
9:00 AM 86.0 °F 96.9 °F 77.0 °F 74% 29.98 in 6.2 mi East 11.5 mph - N/A   Mostly Cloudy
10:00 AM 87.8 °F 102.5 °F 78.8 °F 75% 29.98 in 6.2 mi SE 13.8 mph - N/A   Mostly Cloudy
11:00 AM 87 °F - 78 °F 69% 30.01 in 16 mi East 13.8 mph - -   Widespread Dust
11:00 AM 87.8 °F 102.5 °F 78.8 °F 75% 30.01 in 6.2 mi East 13.8 mph - N/A   Scattered Clouds
12:00 PM 87.8 °F 99.7 °F 77.0 °F 70% 29.98 in 6.2 mi ESE 6.9 mph - N/A   Scattered Clouds
1:00 PM 87.8 °F 99.7 °F 77.0 °F 70% 29.95 in 6.2 mi East 9.2 mph - N/A   Partly Cloudy
2:00 PM 87 °F - 77 °F 64% 29.95 in 16 mi ESE 9.2 mph - -   Scattered Clouds
2:00 PM 86.0 °F 96.9 °F 77.0 °F 74% 29.95 in 6.2 mi ESE 9.2 mph - N/A   Partly Cloudy
3:00 PM 87.8 °F 99.7 °F 77.0 °F 70% 29.92 in 6.2 mi SE 9.2 mph - N/A   Partly Cloudy
4:00 PM 86.0 °F 96.9 °F 77.0 °F 74% 29.92 in 6.2 mi East 8.1 mph - N/A   Scattered Clouds
5:00 PM 84 °F - 76 °F 71% 29.92 in 16 mi East 10.4 mph - -   Scattered Clouds
5:00 PM 84.2 °F 94.1 °F 77.0 °F 79% 29.92 in 6.2 mi East 10.4 mph - N/A   Partly Cloudy
6:00 PM 84.2 °F 94.1 °F 77.0 °F 79% 29.92 in 6.2 mi East 6.9 mph - N/A   Scattered Clouds
7:00 PM 82.4 °F 90.9 °F 77.0 °F 84% 29.95 in 6.2 mi ENE 11.5 mph - N/A   Partly Cloudy
8:00 PM 82 °F - 77 °F 79% 29.96 in 15 mi East 9.2 mph - -   Haze
8:00 PM 82.4 °F 90.9 °F 77.0 °F 84% 29.95 in 6.2 mi East 9.2 mph - N/A   Partly Cloudy
9:00 PM 82.4 °F 90.9 °F 77.0 °F 84% 29.98 in 6.2 mi ENE 8.1 mph - N/A   Scattered Clouds